[[{"header":{"parameterUnit":"m.s-1","parameterCategory":1,"la1":30.2991,"la2":30.254,"lo1":-89.0895,"lo2":-89.0444,"dy":0.0017,"dx":0.0017,"nx":28,"ny":28,"refTime":"2026-02-10T03:00:00:Z","depth":0,"parameterNumber":2,"parameterNumberName":"U-component_of_WINDS"},"data":[0,0,0,0,0,0,0,0,0,0,0,0,0,0,0,0,0,0,0,0,0,0,0,0,0,0,0,0,0,0,0,0,0,0,0,0,0,0,0,0,0,0,0,0,0,0,0,0,0,0,0,0,0,0,0,0,0,0,0.1004,0.1003,0,0.0914,0.0913,0.0912,0.0881,0.0882,0.0882,0.0882,0.079,0.0787,0.0784,0,0,0,0,0,0,0,0,0,0,0,0,0,0.1148,0.1145,0.1004,0.1003,0.1002,0.0914,0.0913,0.0912,0.0881,0.0882,0.0882,0.0882,0.0791,0.0787,0.0784,0,0,0,0,0,0,0,0,0,0,0,0,0,0.1075,0.1145,0.1004,0.0976,0.0972,0.0915,0.0913,0.0912,0.0881,0.0882,0.0882,0.0883,0.0792,0.0788,0.0784,0.0747,0,0,0.0771,0.0769,0,0,0,0,0,0,0,0,0.1079,0.1069,0.0981,0.0978,0.0974,0.0909,0.093,0.0857,0.0881,0.0916,0.0882,0.0883,0.0829,0.0822,0.0804,0.0743,0.0739,0.077,0.0768,0.0766,0.0765,0,0,0,0,0,0,0,0.1084,0.1073,0.0968,0.098,0.0975,0.0968,0.0958,0.0916,0.0871,0.0913,0.091,0.09,0.0827,0.0808,0.0801,0.0738,0.077,0.0767,0.0764,0.0763,0.0643,0.0643,0,0,0,0,0,0,0.1094,0.1077,0.0971,0.0966,0.1029,0.0965,0.0953,0.093,0.0871,0.0862,0.09,0.0899,0.0815,0.0806,0.0798,0.0752,0.0766,0.0762,0.076,0.0644,0.0643,0.0643,0,0,0,0,0,0,0.1097,0.1085,0.0975,0.1021,0.1006,0.0961,0.0935,0.0928,0.0908,0.0861,0.0853,0.0889,0.0815,0.0804,0.076,0.0749,0.076,0.0756,0.0645,0.0644,0.0643,0.066,0,0,0,0,0,0,0.1101,0.1086,0.1072,0.1021,0.1004,0.0939,0.0934,0.0925,0.0901,0.0899,0.0848,0.084,0.0815,0.0767,0.0756,0.0743,0.0753,0.0646,0.0644,0.0643,0.0661,0.066,0.066,0,0,0,0,0,0.1107,0.108,0.1071,0.1058,0.0985,0.0938,0.0928,0.0899,0.09,0.0886,0.0856,0.0842,0.0752,0.0763,0.075,0.0736,0.0646,0.0645,0.0643,0.0661,0.066,0.066,0,0,0,0,0,0,0.113,0.1073,0.1062,0.1018,0.0983,0.0933,0.0913,0.09,0.0863,0.0863,0.0828,0.0817,0.0776,0.0752,0.0765,0.0698,0.0698,0.0694,0.0716,0.0715,0.0714,0.0721,0.075,0,0,0,0,0,0.113,0.1097,0.1048,0.1014,0.0997,0.0959,0.0937,0.0918,0.088,0.0865,0.0831,0.0795,0.0759,0.0735,0.0699,0.0657,0.0646,0.0641,0.0641,0.0641,0.0637,0.0614,0.0612,0.0638,0.0638,0.0638,0,0,0.1129,0.1094,0.1075,0.1018,0.0989,0.0955,0.0946,0.0911,0.0885,0.0859,0.0816,0.0791,0.0748,0.0705,0.0685,0.0684,0.0628,0.0639,0.0639,0.0636,0.0612,0.061,0.0608,0.0637,0.0637,0.0637,0,0,0.1112,0.1081,0.105,0.1021,0.0977,0.0952,0.0944,0.0896,0.0878,0.0835,0.0815,0.0784,0.0722,0.0693,0.067,0.0642,0.0629,0.0632,0.0629,0.0607,0.0605,0.0603,0.0593,0.059,0.0629,0.0629,0.0629,0,0.1117,0.1065,0.1036,0.1001,0.0977,0.0953,0.0921,0.0894,0.0841,0.0824,0.0824,0.0746,0.0715,0.0666,0.066,0.0641,0.0632,0.0637,0.0607,0.0605,0.0603,0.0594,0.059,0.0629,0.0629,0.0629,0.0629,0,0.1074,0.1039,0.1019,0.0968,0.0942,0.0909,0.0874,0.0851,0.0834,0.0809,0.0766,0.0729,0.0685,0.0672,0.0655,0.062,0.0621,0.0614,0.0614,0.0602,0.0592,0.0589,0.063,0.063,0.063,0.063,0,0,0.1067,0.1002,0.0995,0.0972,0.0922,0.0895,0.0861,0.0819,0.08,0.0764,0.0735,0.0684,0.0678,0.0652,0.0631,0.0612,0.0594,0.0608,0.0606,0.0607,0.0554,0.0559,0.0555,0.0584,0.0584,0.0583,0.0557,0,0.1043,0.0982,0.0955,0.0907,0.0874,0.0851,0.0822,0.0788,0.0764,0.0733,0.0706,0.0671,0.0665,0.065,0.0629,0.06,0.0582,0.0602,0.0557,0.0556,0.0569,0.055,0.0555,0.0533,0.0554,0.0553,0.0552,0,0.1007,0.0972,0.092,0.0875,0.0861,0.0835,0.0794,0.0765,0.0727,0.0711,0.0682,0.0663,0.0627,0.063,0.058,0.0594,0.0574,0.0557,0.0556,0.055,0.0554,0.0545,0.0525,0.0522,0.0546,0.0547,0.0547,0,0.1008,0.0948,0.0909,0.089,0.0837,0.0819,0.0796,0.0759,0.0735,0.07,0.0685,0.0646,0.0624,0.0595,0.0566,0.057,0.0519,0.0519,0.0505,0.0506,0.0495,0.0496,0.0472,0.0482,0.0483,0.0483,0.0483,0,0.0984,0.0953,0.0909,0.0885,0.0851,0.082,0.0786,0.0762,0.0729,0.07,0.0678,0.0651,0.0615,0.0584,0.0561,0.0524,0.0514,0.05,0.0494,0.0502,0.0504,0.0489,0.049,0.0482,0.0482,0.0482,0.0482,0,0.0979,0.0948,0.0905,0.0858,0.0846,0.0822,0.0782,0.0759,0.0734,0.0698,0.0688,0.0649,0.0612,0.058,0.053,0.0515,0.0477,0.047,0.049,0.0487,0.0475,0.0477,0.044,0.0434,0.0449,0.0449,0.0449,0,0.0966,0.0942,0.0893,0.0872,0.085,0.0817,0.0793,0.0762,0.0739,0.0694,0.0676,0.0637,0.0604,0.0546,0.0513,0.0475,0.0467,0.0457,0.0461,0.047,0.0468,0.0469,0.0467,0.0457,0.0457,0.0457,0.0457,0,0.0946,0.0932,0.0899,0.0861,0.0833,0.0802,0.0769,0.0754,0.0717,0.0692,0.0653,0.0628,0.0578,0.054,0.0499,0.0475,0.046,0.0456,0.0451,0.0459,0.0471,0.0465,0.0489,0.0457,0.0457,0.0457,0.0457,0.0457,0.0936,0.0914,0.0877,0.0841,0.0814,0.0784,0.076,0.0733,0.07,0.0658,0.0642,0.0603,0.0566,0.0509,0.0486,0.0455,0.0453,0.0445,0.0443,0.0442,0.0443,0.0477,0.0447,0.0447,0.0447,0.0447,0.0447,0,0.0915,0.089,0.0858,0.0814,0.0786,0.0775,0.0739,0.0716,0.0682,0.0649,0.0618,0.0575,0.0538,0.0503,0.0464,0.0446,0.0438,0.0437,0.0438,0.0433,0.0447,0.0456,0.0444,0.0444,0.0444,0.0444,0.0444,0.0444,0.0901,0.0863,0.0845,0.0795,0.077,0.0732,0.0712,0.0685,0.0659,0.0612,0.0581,0.0559,0.0525,0.0484,0.045,0.0441,0.0428,0.0429,0.0417,0.0431,0.0432,0.0433,0.044,0.0426,0.0426,0.0406,0.0406,0.0405]},{"header":{"parameterUnit":"m.s-1","parameterCategory":1,"la1":30.2991,"la2":30.254,"lo1":-89.0895,"lo2":-89.0444,"dy":0.0017,"dx":0.0017,"nx":28,"ny":28,"refTime":"2026-02-10T03:00:00:Z","depth":0,"parameterNumber":3,"parameterNumberName":"V-component_of_WINDS"},"data":[0,0,0,0,0,0,0,0,0,0,0,0,0,0,0,0,0,0,0,0,0,0,0,0,0,0,0,0,0,0,0,0,0,0,0,0,0,0,0,0,0,0,0,0,0,0,0,0,0,0,0,0,0,0,0,0,0,0,-1.0213,-1.0213,0,-1.0222,-1.0222,-1.0222,-1.0186,-1.0185,-1.0184,-1.0183,-1.0193,-1.0194,-1.0195,0,0,0,0,0,0,0,0,0,0,0,0,0,-1.0163,-1.0164,-1.0213,-1.0213,-1.0213,-1.0222,-1.0222,-1.0222,-1.0186,-1.0185,-1.0183,-1.0182,-1.0192,-1.0194,-1.0195,0,0,0,0,0,0,0,0,0,0,0,0,0,-1.018,-1.0165,-1.0213,-1.0196,-1.0195,-1.0222,-1.0222,-1.0223,-1.0186,-1.0185,-1.0183,-1.0182,-1.0192,-1.0193,-1.0195,-1.024,0,0,-1.0201,-1.0202,0,0,0,0,0,0,0,0,-1.0179,-1.0182,-1.0198,-1.0197,-1.0196,-1.0201,-1.0208,-1.0228,-1.0187,-1.019,-1.0183,-1.0181,-1.0197,-1.0198,-1.0203,-1.024,-1.024,-1.0201,-1.0202,-1.0203,-1.0204,0,0,0,0,0,0,0,-1.0178,-1.0181,-1.0217,-1.0199,-1.0197,-1.0188,-1.0188,-1.0212,-1.0202,-1.0189,-1.0187,-1.0188,-1.0196,-1.0202,-1.0203,-1.0241,-1.0201,-1.0203,-1.0204,-1.0205,-1.0313,-1.0315,0,0,0,0,0,0,-1.0179,-1.018,-1.0216,-1.0217,-1.0183,-1.019,-1.0191,-1.0201,-1.0202,-1.02,-1.019,-1.0186,-1.0199,-1.0201,-1.0204,-1.0255,-1.0203,-1.0205,-1.0206,-1.0312,-1.0314,-1.0315,0,0,0,0,0,0,-1.0178,-1.0182,-1.0216,-1.0198,-1.0201,-1.0193,-1.0205,-1.0202,-1.0208,-1.0202,-1.02,-1.0198,-1.0198,-1.0201,-1.0231,-1.0255,-1.0206,-1.0208,-1.0309,-1.0312,-1.0315,-1.0359,0,0,0,0,0,0,-1.0177,-1.0182,-1.0199,-1.0199,-1.0203,-1.0243,-1.0206,-1.0204,-1.0211,-1.0208,-1.0209,-1.0208,-1.0197,-1.0228,-1.0233,-1.0257,-1.0209,-1.0307,-1.0311,-1.0314,-1.0355,-1.0363,-1.0369,0,0,0,0,0,-1.0175,-1.0212,-1.02,-1.0205,-1.0224,-1.0245,-1.0247,-1.0234,-1.0214,-1.023,-1.0226,-1.0208,-1.0252,-1.0231,-1.0236,-1.0261,-1.0306,-1.031,-1.0313,-1.0352,-1.0361,-1.0369,0,0,0,0,0,0,-1.0216,-1.0211,-1.0199,-1.0236,-1.0241,-1.0238,-1.0259,-1.0244,-1.0255,-1.0251,-1.0234,-1.0235,-1.0267,-1.0267,-1.0245,-1.0304,-1.0275,-1.028,-1.0303,-1.0311,-1.0318,-1.0318,-1.0211,0,0,0,0,0,-1.0229,-1.0247,-1.0242,-1.0275,-1.0278,-1.0268,-1.0277,-1.0266,-1.0271,-1.0273,-1.0271,-1.0276,-1.0291,-1.0301,-1.0314,-1.0355,-1.0354,-1.0374,-1.0381,-1.0387,-1.0392,-1.0412,-1.0421,-1.0328,-1.0328,-1.0328,0,0,-1.0257,-1.0256,-1.0269,-1.0283,-1.0286,-1.0304,-1.027,-1.0292,-1.0305,-1.0276,-1.0304,-1.0303,-1.0307,-1.0342,-1.0358,-1.0343,-1.0417,-1.0392,-1.0396,-1.0398,-1.0417,-1.0426,-1.0434,-1.0331,-1.033,-1.033,0,0,-1.0316,-1.0318,-1.0346,-1.0349,-1.0353,-1.0346,-1.0353,-1.0353,-1.0351,-1.0378,-1.0357,-1.0372,-1.0398,-1.0402,-1.0408,-1.0468,-1.0451,-1.0473,-1.0509,-1.053,-1.0537,-1.0543,-1.0565,-1.0573,-1.0478,-1.0478,-1.0478,0,-1.035,-1.0377,-1.0362,-1.0385,-1.0391,-1.0366,-1.0394,-1.0397,-1.0406,-1.0411,-1.0395,-1.0426,-1.0427,-1.0463,-1.0478,-1.0483,-1.049,-1.0473,-1.0537,-1.0544,-1.0549,-1.057,-1.0578,-1.048,-1.048,-1.048,-1.0479,0,-1.0419,-1.0438,-1.046,-1.0468,-1.0477,-1.0503,-1.0491,-1.0502,-1.049,-1.0485,-1.0513,-1.0514,-1.0526,-1.0534,-1.0523,-1.0568,-1.0559,-1.054,-1.0511,-1.0561,-1.058,-1.0587,-1.0484,-1.0483,-1.0482,-1.0482,0,0,-1.0505,-1.0504,-1.0513,-1.0516,-1.0518,-1.0533,-1.0556,-1.0568,-1.0578,-1.0584,-1.0604,-1.0626,-1.0608,-1.0614,-1.0604,-1.0622,-1.0669,-1.0601,-1.06,-1.0613,-1.0718,-1.0733,-1.0742,-1.0658,-1.0659,-1.066,-1.0718,0,-1.0564,-1.0604,-1.0591,-1.0632,-1.0649,-1.0624,-1.0645,-1.0648,-1.0644,-1.0657,-1.0652,-1.0668,-1.0644,-1.0648,-1.0664,-1.066,-1.069,-1.0655,-1.0675,-1.0676,-1.0675,-1.0752,-1.0767,-1.0821,-1.0725,-1.0726,-1.0727,0,-1.0638,-1.0647,-1.069,-1.0688,-1.0695,-1.0714,-1.0723,-1.0737,-1.074,-1.0735,-1.0742,-1.0727,-1.075,-1.072,-1.0751,-1.0728,-1.0735,-1.0734,-1.0736,-1.0738,-1.0705,-1.0755,-1.0838,-1.0847,-1.0739,-1.0738,-1.0737,0,-1.0697,-1.0719,-1.0748,-1.0751,-1.075,-1.0764,-1.0764,-1.0766,-1.0774,-1.0782,-1.0787,-1.0798,-1.0805,-1.0813,-1.0802,-1.0781,-1.0834,-1.0804,-1.0831,-1.0832,-1.0844,-1.0843,-1.0929,-1.0848,-1.0848,-1.0848,-1.0848,0,-1.0764,-1.0791,-1.0774,-1.0791,-1.0821,-1.0805,-1.0834,-1.0832,-1.0833,-1.085,-1.0829,-1.0845,-1.0828,-1.0842,-1.0833,-1.086,-1.0863,-1.086,-1.0857,-1.0862,-1.0862,-1.0867,-1.0863,-1.085,-1.085,-1.0849,-1.0849,0,-1.0834,-1.0824,-1.0853,-1.085,-1.085,-1.0872,-1.0869,-1.0885,-1.0878,-1.0899,-1.0903,-1.0893,-1.0909,-1.0898,-1.0913,-1.0907,-1.0943,-1.0935,-1.0942,-1.094,-1.0967,-1.0965,-1.106,-1.1071,-1.0982,-1.0983,-1.0984,0,-1.0878,-1.0898,-1.0897,-1.0906,-1.0908,-1.0923,-1.0931,-1.0916,-1.0925,-1.093,-1.0945,-1.0959,-1.0969,-1.0995,-1.0989,-1.1001,-1.0993,-1.1025,-1.0994,-1.0998,-1.0993,-1.0992,-1.0994,-1.1031,-1.1032,-1.1033,-1.1034,0,-1.0956,-1.095,-1.0962,-1.0973,-1.0983,-1.099,-1.0996,-1.1005,-1.0989,-1.1,-1.1016,-1.1024,-1.1039,-1.1053,-1.1062,-1.1062,-1.1046,-1.1043,-1.105,-1.1056,-1.1059,-1.1058,-1.0959,-1.1042,-1.1041,-1.104,-1.104,-1.104,-1.1015,-1.1031,-1.1033,-1.1047,-1.105,-1.1055,-1.107,-1.1065,-1.1078,-1.1089,-1.1079,-1.1098,-1.11,-1.1111,-1.1113,-1.1127,-1.1114,-1.1124,-1.1126,-1.1129,-1.1133,-1.1056,-1.1129,-1.1128,-1.1128,-1.1128,-1.1128,0,-1.1092,-1.1092,-1.1105,-1.1113,-1.1124,-1.1107,-1.1112,-1.1123,-1.1139,-1.1142,-1.1153,-1.117,-1.1183,-1.1178,-1.119,-1.1202,-1.1195,-1.1206,-1.1205,-1.1205,-1.1144,-1.1137,-1.1212,-1.1212,-1.1212,-1.1211,-1.1211,-1.1211,-1.1134,-1.1161,-1.1155,-1.1182,-1.1182,-1.12,-1.1204,-1.1209,-1.1212,-1.1232,-1.1243,-1.1239,-1.1239,-1.125,-1.1262,-1.126,-1.1265,-1.1279,-1.1274,-1.1218,-1.1209,-1.1202,-1.1195,-1.128,-1.128,-1.1334,-1.1334,-1.1335]}]]